| time (UTC) | temp C | wind direction | speed KPH | gust KPH | rain 1hr cm | rain 24hr cm | rain mn cm | humidity % | barometer mb |
| 20260506124128 | 26 | 0 | 3.2 | 0.0 | 0.00 | 0.00 | 0.00 | 31 | 969.0 |
| 20260506121128 | 25 | 0 | 8.0 | 0.0 | 0.00 | 0.00 | 0.00 | 31 | 970.0 |
| 20260506114128 | 24 | 0 | 1.6 | 0.0 | 0.00 | 0.00 | 0.00 | 34 | 970.0 |
| 20260506111128 | 23 | 0 | 3.2 | 0.0 | 0.00 | 0.00 | 0.00 | 35 | 970.0 |
| 20260506104128 | 23 | 0 | 3.2 | 0.0 | 0.00 | 0.00 | 0.00 | 36 | 970.0 |
| 20260506101128 | 23 | 0 | 3.2 | 0.0 | 0.00 | 0.00 | 0.00 | 37 | 971.0 |
| 20260506094128 | 23 | 0 | 1.6 | 0.0 | 0.00 | 0.00 | 0.00 | 37 | 971.0 |
| 20260506091128 | 22 | 0 | 1.6 | 0.0 | 0.00 | 0.00 | 0.00 | 40 | 971.0 |
| 20260506084128 | 21 | 0 | 1.6 | 0.0 | 0.00 | 0.00 | 0.00 | 47 | 972.0 |
| 20260506081128 | 20 | 0 | 0.0 | 0.0 | 0.00 | 0.00 | 0.00 | 51 | 972.0 |
| 20260506071128 | 17 | 0 | 4.8 | 0.0 | 0.00 | 0.00 | 0.00 | 60 | 973.0 |
| 20260506061128 | 15 | 0 | 0.0 | 0.0 | 0.00 | 0.00 | 0.00 | 71 | 973.0 |
| 20260506051128 | 11 | 0 | 0.0 | 0.0 | 0.00 | 0.00 | 0.00 | 80 | 973.0 |
| 20260506044128 | 10 | 0 | 0.0 | 0.0 | 0.00 | 0.00 | 0.00 | 79 | 973.0 |
| 20260506041128 | 10 | 0 | 1.6 | 0.0 | 0.00 | 0.00 | 0.00 | 79 | 973.0 |
| 20260506034128 | 11 | 0 | 1.6 | 0.0 | 0.00 | 0.00 | 0.00 | 77 | 973.0 |
| 20260506031128 | 11 | 0 | 3.2 | 0.0 | 0.00 | 0.00 | 0.00 | 75 | 973.0 |
| 20260506024128 | 12 | 0 | 1.6 | 0.0 | 0.00 | 0.00 | 0.00 | 73 | 973.0 |
| 20260506021128 | 13 | 0 | 1.6 | 0.0 | 0.00 | 0.00 | 0.00 | 69 | 973.0 |
| 20260506014128 | 14 | 0 | 1.6 | 0.0 | 0.00 | 0.00 | 0.00 | 64 | 973.0 |
| 20260506011128 | 15 | 0 | 6.4 | 0.0 | 0.00 | 0.00 | 0.00 | 64 | 973.0 |
| 20260506004128 | 15 | 0 | 3.2 | 0.0 | 0.00 | 0.00 | 0.00 | 65 | 972.0 |
| 20260506001128 | 15 | 0 | 3.2 | 0.0 | 0.00 | 0.00 | 0.00 | 67 | 973.0 |
| 20260505234128 | 14 | 0 | 3.2 | 0.0 | 0.00 | 0.00 | 0.00 | 69 | 972.0 |
| 20260505231128 | 13 | 0 | 11.3 | 0.0 | 0.00 | 0.00 | 0.00 | 71 | 972.0 |
| 20260505224128 | 14 | 0 | 1.6 | 0.0 | 0.00 | 0.00 | 0.00 | 69 | 971.0 |
| 20260505221128 | 15 | 0 | 0.0 | 0.0 | 0.00 | 0.00 | 0.00 | 67 | 971.0 |
| 20260505214128 | 16 | 0 | 3.2 | 0.0 | 0.00 | 0.00 | 0.00 | 64 | 971.0 |
| 20260505211128 | 17 | 0 | 1.6 | 0.0 | 0.00 | 0.00 | 0.00 | 58 | 971.0 |
| 20260505204128 | 17 | 0 | 0.0 | 0.0 | 0.00 | 0.00 | 0.00 | 57 | 971.0 |
| 20260505201128 | 17 | 0 | 8.0 | 0.0 | 0.00 | 0.00 | 0.00 | 56 | 970.0 |
| 20260505194128 | 18 | 0 | 8.0 | 0.0 | 0.00 | 0.00 | 0.00 | 52 | 970.0 |
| 20260505191128 | 20 | 0 | 6.4 | 0.0 | 0.00 | 0.00 | 0.00 | 43 | 969.0 |
| 20260505184128 | 19 | 0 | 8.0 | 0.0 | 0.00 | 0.00 | 0.00 | 47 | 968.0 |
| 20260505181128 | 20 | 0 | 0.0 | 0.0 | 0.00 | 0.00 | 0.00 | 42 | 967.0 |
| 20260505174128 | 24 | 0 | 0.0 | 0.0 | 0.00 | 0.00 | 0.00 | 31 | 967.0 |
| 20260505171128 | 25 | 0 | 4.8 | 0.0 | 0.00 | 0.00 | 0.00 | 27 | 967.0 |
| 20260505164128 | 26 | 0 | 11.3 | 0.0 | 0.00 | 0.00 | 0.00 | 24 | 968.0 |
| 20260505161128 | 28 | 0 | 9.7 | 0.0 | 0.00 | 0.00 | 0.00 | 24 | 967.0 |
| 20260505151128 | 28 | 0 | 6.4 | 0.0 | 0.00 | 0.00 | 0.00 | 23 | 968.0 |